FW6147 Weather Reports


time (UTC)temp
F
wind
direction
speed
knots
gust
knots
rain 1hr
in
rain 24hr
in
rain mn
in
humidity
%
barometer
mb
20260510191055 88 0 0.0 6.1 0.00 0.00 0.00 10 1019.3
20260510190554 88 25 0.0 6.1 0.00 0.00 0.00 11 1019.5
20260510190100 88 20 1.7 6.1 0.00 0.00 0.00 11 1019.5
20260510185557 88 0 2.6 6.1 0.00 0.00 0.00 12 1019.5
20260510185054 88 0 0.0 4.3 0.00 0.00 0.00 10 1019.5
20260510184554 87 0 0.0 8.7 0.00 0.00 0.00 10 1019.6
20260510184056 87 0 0.0 8.7 0.00 0.00 0.00 11 1019.6
20260510183556 87 0 4.3 8.7 0.00 0.00 0.00 11 1019.6
20260510183056 88 26 1.7 7.0 0.00 0.00 0.00 12 1019.7
20260510182553 87 0 0.0 7.0 0.00 0.00 0.00 11 1019.7
20260510182054 87 49 1.7 7.0 0.00 0.00 0.00 14 1019.7
20260510181601 87 0 0.0 7.0 0.00 0.00 0.00 12 1019.8
20260510181055 86 12 1.7 7.0 0.00 0.00 0.00 14 1019.8
20260510180555 86 0 2.6 7.0 0.00 0.00 0.00 11 1019.9
20260510180058 86 0 0.9 6.1 0.00 0.00 0.00 10 1019.9
20260510175554 86 0 0.9 7.0 0.00 0.00 0.00 14 1019.8
20260510175055 86 0 3.5 8.7 0.00 0.00 0.00 14 1019.8
20260510174558 85 0 2.6 8.7 0.00 0.00 0.00 13 1019.8
20260510174057 85 360 3.5 8.7 0.00 0.00 0.00 13 1019.8
20260510173554 85 319 3.5 7.8 0.00 0.00 0.00 13 1019.8
20260510173056 85 359 1.7 7.0 0.00 0.00 0.00 16 1019.7
20260510172556 85 323 3.5 7.0 0.00 0.00 0.00 11 1019.7
20260510172055 85 296 2.6 7.0 0.00 0.00 0.00 11 1019.7
20260510171601 85 344 0.9 5.2 0.00 0.00 0.00 13 1019.8
20260510171053 84 0 0.9 5.2 0.00 0.00 0.00 12 1019.7
20260510170553 84 0 0.9 5.2 0.00 0.00 0.00 14 1019.8
20260510170121 83 33 1.7 5.2 0.00 0.00 0.00 13 1019.8
20260510165556 83 0 0.0 6.1 0.00 0.00 0.00 14 1019.8
20260510165056 83 0 0.9 6.1 0.00 0.00 0.00 13 1019.8
20260510164604 83 1 0.0 4.3 0.00 0.00 0.00 16 1019.9
20260510164054 82 0 0.0 3.5 0.00 0.00 0.00 16 1019.9
20260510163554 82 0 0.0 3.5 0.00 0.00 0.00 14 1019.9
20260510163053 82 0 0.0 3.5 0.00 0.00 0.00 14 1019.9
20260510162555 82 0 0.0 3.5 0.00 0.00 0.00 16 1019.9
20260510162056 82 0 0.0 0.0 0.00 0.00 0.00 15 1019.8
20260510161555 82 0 0.0 0.0 0.00 0.00 0.00 14 1019.9
20260510161054 81 0 0.0 0.0 0.00 0.00 0.00 14 1020.0
20260510160554 81 0 0.0 0.0 0.00 0.00 0.00 15 1019.9
20260510160054 81 0 0.0 2.6 0.00 0.00 0.00 15 1020.0
20260510155554 80 0 0.0 6.1 0.00 0.00 0.00 16 1020.0
20260510155054 80 0 0.0 6.1 0.00 0.00 0.00 17 1020.0
20260510154558 80 36 2.6 4.3 0.00 0.00 0.00 17 1019.8
20260510154054 81 53 0.9 5.2 0.00 0.00 0.00 15 1019.8
20260510153557 80 0 0.0 5.2 0.00 0.00 0.00 16 1019.8
20260510153056 80 61 0.9 5.2 0.00 0.00 0.00 16 1019.8
20260510152554 79 0 0.0 3.5 0.00 0.00 0.00 15 1019.8
20260510152053 79 0 0.0 5.2 0.00 0.00 0.00 16 1019.8
20260510151558 78 129 0.0 5.2 0.00 0.00 0.00 16 1019.7
20260510151055 78 0 1.7 5.2 0.00 0.00 0.00 17 1019.6
20260510150554 77 0 0.0 4.3 0.00 0.00 0.00 17 1019.7
20260510150058 77 0 0.0 4.3 0.00 0.00 0.00 17 1019.7
20260510145554 76 0 0.0 3.5 0.00 0.00 0.00 18 1019.6
20260510145054 76 0 0.0 3.5 0.00 0.00 0.00 18 1019.7
20260510144555 76 0 0.0 4.3 0.00 0.00 0.00 18 1019.6
20260510144054 75 0 0.0 6.1 0.00 0.00 0.00 18 1019.6
20260510143555 75 0 1.7 6.1 0.00 0.00 0.00 19 1019.6
20260510143055 74 0 0.9 4.3 0.00 0.00 0.00 19 1019.5
20260510142553 74 0 0.0 2.6 0.00 0.00 0.00 20 1019.4
20260510142056 73 0 0.0 5.2 0.00 0.00 0.00 20 1019.4
20260510141557 73 172 0.0 5.2 0.00 0.00 0.00 21 1019.4
20260510141055 72 164 1.7 5.2 0.00 0.00 0.00 21 1019.4
20260510140554 72 0 0.0 4.3 0.00 0.00 0.00 21 1019.4
20260510140100 71 141 0.0 4.3 0.00 0.00 0.00 22 1019.4
20260510135554 70 0 0.0 3.5 0.00 0.00 0.00 22 1019.3
20260510135055 70 0 0.0 3.5 0.00 0.00 0.00 24 1019.2
20260510134559 69 149 0.0 0.0 0.00 0.00 0.00 26 1019.1
20260510134054 67 0 0.0 4.3 0.00 0.00 0.00 27 1019.1
20260510133558 66 0 0.0 4.3 0.00 0.00 0.00 28 1019.0
20260510133055 65 153 1.7 4.3 0.00 0.00 0.00 28 1018.9
20260510132554 64 0 0.0 3.5 0.00 0.00 0.00 30 1019.0
20260510132056 63 0 0.0 5.2 0.00 0.00 0.00 31 1018.9
20260510131556 62 0 2.6 5.2 0.00 0.00 0.00 30 1018.8
20260510131054 61 173 0.0 0.0 0.00 0.00 0.00 30 1018.8
20260510130555 61 0 0.0 0.0 0.00 0.00 0.00 32 1018.7
20260510130054 62 0 0.0 0.0 0.00 0.00 0.00 31 1018.8
20260510125556 62 0 0.0 0.0 0.00 0.00 0.00 28 1018.7
20260510125055 62 0 0.0 0.0 0.00 0.00 0.00 28 1018.6
20260510124609 62 0 0.0 0.0 0.00 0.00 0.00 29 1018.5
20260510124058 62 0 0.0 0.0 0.00 0.00 0.00 29 1018.5
20260510123555 61 0 0.0 0.0 0.00 0.00 0.00 29 1018.5
20260510123058 62 0 0.0 0.0 0.00 0.00 0.00 31 1018.4
20260510122556 61 0 0.0 0.0 0.00 0.00 0.00 30 1018.4
20260510122054 61 0 0.0 0.0 0.00 0.00 0.00 31 1018.3
20260510121555 61 0 0.0 0.0 0.00 0.00 0.00 31 1018.2
20260510121053 61 0 0.0 0.0 0.00 0.00 0.00 31 1018.0
20260510120555 62 0 0.0 0.0 0.00 0.00 0.00 30 1018.1
20260510120054 62 0 0.0 0.0 0.00 0.00 0.00 29 1018.0
20260510115554 63 0 0.0 0.0 0.00 0.00 0.00 27 1017.9
20260510115054 62 0 0.0 0.0 0.00 0.00 0.00 27 1017.9
20260510114601 62 0 0.0 0.0 0.00 0.00 0.00 28 1017.9
20260510114055 62 0 0.0 0.0 0.00 0.00 0.00 28 1017.9
20260510113555 61 0 0.0 0.0 0.00 0.00 0.00 28 1017.9
20260510113057 60 0 0.0 0.0 0.00 0.00 0.00 31 1017.9
20260510112555 60 0 0.0 0.0 0.00 0.00 0.00 31 1017.8
20260510112054 59 0 0.0 0.0 0.00 0.00 0.00 32 1017.7
20260510111558 60 0 0.0 0.0 0.00 0.00 0.00 31 1017.7
20260510111054 61 0 0.0 0.0 0.00 0.00 0.00 29 1017.6
20260510110553 62 0 0.0 0.0 0.00 0.00 0.00 29 1017.6
20260510110055 63 0 0.0 0.0 0.00 0.00 0.00 28 1017.7
20260510105555 63 0 0.0 0.0 0.00 0.00 0.00 27 1017.7
20260510105055 63 0 0.0 0.0 0.00 0.00 0.00 28 1017.6
20260510104557 62 0 0.0 0.0 0.00 0.00 0.00 29 1017.5
20260510104054 61 0 0.0 0.0 0.00 0.00 0.00 29 1017.5
20260510103553 61 0 0.0 0.0 0.00 0.00 0.00 29 1017.6
20260510103054 61 0 0.0 0.0 0.00 0.00 0.00 29 1017.5
20260510102554 62 0 0.0 0.0 0.00 0.00 0.00 29 1017.6
20260510102054 62 0 0.0 5.2 0.00 0.00 0.00 29 1017.6
20260510101554 63 0 0.0 5.2 0.00 0.00 0.00 29 1017.4
20260510101055 64 0 0.9 5.2 0.00 0.00 0.00 28 1017.2
20260510100555 65 0 0.0 0.0 0.00 0.00 0.00 28 1017.3
20260510095552 68 0 0.0 5.2 0.00 0.00 0.00 26 1017.0
20260510095056 69 0 0.0 5.2 0.00 0.00 0.00 25 1017.0
20260510094556 69 309 2.6 5.2 0.00 0.00 0.00 21 1016.9
20260510094053 69 288 1.7 6.1 0.00 0.00 0.00 21 1016.9
20260510093553 69 294 0.0 6.1 0.00 0.00 0.00 21 1016.8
20260510093102 69 264 2.6 6.1 0.00 0.00 0.00 21 1016.8
20260510092556 69 221 1.7 6.1 0.00 0.00 0.00 21 1016.8
20260510092055 70 282 1.7 7.0 0.00 0.00 0.00 21 1016.9
20260510091556 70 299 2.6 7.0 0.00 0.00 0.00 20 1017.0
20260510091055 69 293 2.6 7.0 0.00 0.00 0.00 21 1016.9
20260510090554 69 288 1.7 7.0 0.00 0.00 0.00 22 1017.1
20260510090057 69 0 0.9 4.3 0.00 0.00 0.00 22 1017.1
20260510085554 69 0 0.0 4.3 0.00 0.00 0.00 22 1017.0
20260510085100 69 0 0.0 4.3 0.00 0.00 0.00 21 1017.1
20260510084556 70 286 0.0 3.5 0.00 0.00 0.00 21 1017.2
20260510084055 71 0 0.0 3.5 0.00 0.00 0.00 20 1017.1
20260510083554 72 0 0.0 7.8 0.00 0.00 0.00 19 1017.1
20260510083103 73 0 0.9 11.3 0.00 0.00 0.00 18 1017.1
20260510082554 73 0 3.5 11.3 0.00 0.00 0.00 18 1017.1
20260510082055 74 298 4.3 13.9 0.00 0.00 0.00 18 1017.1
20260510081559 74 249 6.1 16.5 0.00 0.00 0.00 17 1017.1
20260510081055 74 235 6.1 16.5 0.00 0.00 0.00 17 1017.1
20260510080555 74 299 7.0 16.5 0.00 0.00 0.00 17 1017.2
20260510080058 73 313 7.0 14.8 0.00 0.00 0.00 18 1017.3
20260510075555 73 278 6.1 12.2 0.00 0.00 0.00 18 1017.2
20260510075053 72 278 5.2 9.6 0.00 0.00 0.00 19 1017.3
20260510074556 70 313 4.3 8.7 0.00 0.00 0.00 20 1017.5
20260510074054 69 285 0.0 4.3 0.00 0.00 0.00 21 1017.6
20260510073553 69 0 0.0 0.0 0.00 0.00 0.00 22 1017.7
20260510073105 69 0 0.0 0.0 0.00 0.00 0.00 22 1017.9
20260510072555 67 0 0.0 0.0 0.00 0.00 0.00 24 1017.9
20260510072056 67 0 0.0 1.7 0.00 0.00 0.00 24 1017.7
20260510071556 67 0 0.0 1.7 0.00 0.00 0.00 25 1017.7
20260510071055 66 0 0.0 0.0 0.00 0.00 0.00 25 1017.5
20260510070556 67 0 0.0 0.0 0.00 0.00 0.00 24 1017.3
20260510070054 67 0 0.0 0.0 0.00 0.00 0.00 24 1017.2
20260510065556 67 0 0.0 0.0 0.00 0.00 0.00 24 1017.2
20260510065054 67 0 0.0 0.0 0.00 0.00 0.00 23 1017.2
20260510064554 67 0 0.0 0.0 0.00 0.00 0.00 23 1017.2
20260510064054 67 0 0.0 2.6 0.00 0.00 0.00 23 1017.1
20260510063555 68 0 0.0 2.6 0.00 0.00 0.00 23 1017.0
20260510063057 68 0 0.0 0.0 0.00 0.00 0.00 22 1017.0
20260510062555 68 0 0.0 0.9 0.00 0.00 0.00 22 1016.9
20260510062054 68 0 0.0 0.9 0.00 0.00 0.00 22 1016.9
20260510061555 68 0 0.0 0.0 0.00 0.00 0.00 22 1016.9
20260510061056 68 0 0.0 0.0 0.00 0.00 0.00 22 1016.8
20260510060553 68 0 0.0 0.0 0.00 0.00 0.00 22 1016.9
20260510060055 68 0 0.0 0.0 0.00 0.00 0.00 22 1016.8
20260510055554 69 0 0.0 0.0 0.00 0.00 0.00 22 1016.8
20260510055057 69 0 0.0 0.0 0.00 0.00 0.00 22 1016.9
20260510054557 69 0 0.0 0.0 0.00 0.00 0.00 22 1016.8
20260510054056 69 0 0.0 0.0 0.00 0.00 0.00 22 1016.6
20260510053554 70 0 0.0 0.0 0.00 0.00 0.00 21 1016.8
20260510053107 70 0 0.0 0.0 0.00 0.00 0.00 21 1016.7
20260510052553 70 0 0.0 0.0 0.00 0.00 0.00 21 1016.6
20260510052055 70 0 0.0 0.0 0.00 0.00 0.00 21 1016.7
20260510051608 70 0 0.0 0.0 0.00 0.00 0.00 21 1016.6
20260510051057 70 0 0.0 1.7 0.00 0.00 0.00 21 1016.6
20260510050554 70 0 0.0 1.7 0.00 0.00 0.00 21 1016.7
20260510050057 70 0 0.0 1.7 0.00 0.00 0.00 21 1016.7
20260510045555 70 0 0.0 0.0 0.00 0.00 0.00 21 1016.5
20260510045055 69 0 0.0 0.0 0.00 0.00 0.00 21 1016.5
20260510044557 69 0 0.0 0.0 0.00 0.00 0.00 22 1016.6
20260510044054 69 0 0.0 0.0 0.00 0.00 0.00 21 1016.5
20260510043557 70 0 0.0 0.0 0.00 0.00 0.00 21 1016.5
20260510043054 70 0 0.0 0.0 0.00 0.00 0.00 21 1016.6
20260510042555 70 0 0.0 0.0 0.00 0.00 0.00 21 1016.5
20260510042055 70 0 0.0 0.0 0.00 0.00 0.00 21 1016.4
20260510041556 70 0 0.0 0.0 0.00 0.00 0.00 21 1016.3
20260510041056 70 0 0.0 0.0 0.00 0.00 0.00 21 1016.4
20260510040556 70 0 0.0 0.0 0.00 0.00 0.00 21 1016.3
20260510040058 70 0 0.0 0.0 0.00 0.00 0.00 21 1016.2
20260510035555 71 0 0.0 0.0 0.00 0.00 0.00 20 1016.3
20260510035054 71 0 0.0 0.0 0.00 0.00 0.00 20 1016.2
20260510034554 72 0 0.0 0.0 0.00 0.00 0.00 20 1016.2
20260510034055 72 0 0.0 0.0 0.00 0.00 0.00 20 1016.1
20260510033554 72 0 0.0 0.0 0.00 0.00 0.00 20 1016.0
20260510033112 72 0 0.0 0.0 0.00 0.00 0.00 20 1016.0
20260510032557 72 0 0.0 0.0 0.00 0.00 0.00 20 1016.0
20260510032055 72 0 0.0 0.0 0.00 0.00 0.00 20 1015.9
20260510031554 72 0 0.0 0.0 0.00 0.00 0.00 20 1015.8
20260510031054 72 0 0.0 0.0 0.00 0.00 0.00 20 1015.8
20260510030554 72 0 0.0 0.0 0.00 0.00 0.00 21 1015.6
20260510030054 72 0 0.0 0.0 0.00 0.00 0.00 20 1015.5
20260510025554 73 0 0.0 0.0 0.00 0.00 0.00 20 1015.6
20260510025052 74 0 0.0 0.9 0.00 0.00 0.00 19 1015.5
20260510024601 74 0 0.0 0.9 0.00 0.00 0.00 19 1015.4
20260510024058 74 0 0.0 0.9 0.00 0.00 0.00 19 1015.3
20260510023554 75 0 0.0 0.0 0.00 0.00 0.00 18 1015.3
20260510023056 76 0 0.0 0.0 0.00 0.00 0.00 18 1015.1
20260510022555 76 0 0.0 0.0 0.00 0.00 0.00 18 1015.1
20260510022055 77 0 0.0 0.0 0.00 0.00 0.00 17 1015.0
20260510021552 78 0 0.0 0.0 0.00 0.00 0.00 17 1014.9
20260510021053 79 0 0.0 0.0 0.00 0.00 0.00 16 1014.8
20260510020555 80 0 0.0 0.0 0.00 0.00 0.00 16 1014.7
20260510020057 81 0 0.0 0.0 0.00 0.00 0.00 15 1014.6
20260510015552 82 0 0.0 1.7 0.00 0.00 0.00 14 1014.7
20260510015051 83 0 0.0 3.5 0.00 0.00 0.00 14 1014.6
20260510014556 84 0 0.0 4.3 0.00 0.00 0.00 13 1014.6
20260510014055 85 0 0.0 5.2 0.00 0.00 0.00 13 1014.5
20260510013556 85 0 0.9 8.7 0.00 0.00 0.00 13 1014.5
20260510013059 86 0 0.9 8.7 0.00 0.00 0.00 12 1014.5
20260510012558 86 0 2.6 8.7 0.00 0.00 0.00 12 1014.6
20260510012055 87 0 1.7 7.8 0.00 0.00 0.00 12 1014.5
20260510011556 87 273 1.7 10.4 0.00 0.00 0.00 12 1014.5
20260510011055 87 0 3.5 10.4 0.00 0.00 0.00 11 1014.4
20260510010554 87 327 3.5 10.4 0.00 0.00 0.00 11 1014.4
20260510010055 88 311 3.5 10.4 0.00 0.00 0.00 11 1014.5
20260510005554 88 271 1.7 10.4 0.00 0.00 0.00 11 1014.4
20260510005051 88 283 4.3 10.4 0.00 0.00 0.00 11 1014.4
20260510004559 89 0 1.7 8.7 0.00 0.00 0.00 11 1014.4
20260510004055 89 296 1.7 8.7 0.00 0.00 0.00 11 1014.4
20260510003555 89 269 0.9 8.7 0.00 0.00 0.00 11 1014.5
20260510003103 89 0 1.7 7.8 0.00 0.00 0.00 11 1014.5
20260510002551 89 0 1.7 9.6 0.00 0.00 0.00 11 1014.4
20260510002054 89 257 1.7 9.6 0.00 0.00 0.00 11 1014.5
20260510001557 89 295 1.7 8.7 0.00 0.00 0.00 10 1014.5
20260510001052 89 295 1.7 10.4 0.00 0.00 0.00 10 1014.5
20260510000552 89 0 4.3 10.4 0.00 0.00 0.00 10 1014.5
20260510000055 89 276 3.5 11.3 0.00 0.00 0.00 10 1014.4
20260509235555 90 322 4.3 11.3 0.00 0.00 0.00 10 1014.6
20260509235053 90 269 4.3 10.4 0.00 0.00 0.00 10 1014.5
20260509234559 90 0 0.9 6.1 0.00 0.00 0.00 10 1014.6
20260509234054 91 0 3.5 7.0 0.00 0.00 0.00 10 1014.5
20260509233558 91 0 1.7 7.0 0.00 0.00 0.00 10 1014.5
20260509233056 91 0 0.0 5.2 0.00 0.00 0.00 11 1014.6
20260509232557 90 0 0.0 5.2 0.00 0.00 0.00 10 1014.5
20260509232055 90 0 0.0 4.3 0.00 0.00 0.00 10 1014.6
20260509231559 90 0 0.0 11.3 0.00 0.00 0.00 10 1014.6
20260509231054 90 0 2.6 17.4 0.00 0.00 0.00 11 1014.7
20260509230556 90 304 7.0 17.4 0.00 0.00 0.00 10 1014.6
20260509225555 91 301 3.5 12.2 0.00 0.00 0.00 10 1014.7
20260509225054 90 262 1.7 10.4 0.00 0.00 0.00 11 1014.8
20260509224603 90 359 2.6 10.4 0.00 0.00 0.00 10 1014.7
20260509224055 90 0 5.2 10.4 0.00 0.00 0.00 10 1014.9
20260509223555 90 0 2.6 13.0 0.00 0.00 0.00 11 1015.0
20260509223102 90 314 3.5 13.0 0.00 0.00 0.00 10 1015.2
20260509222558 90 275 0.9 12.2 0.00 0.00 0.00 10 1015.2
20260509222054 90 0 3.5 13.9 0.00 0.00 0.00 10 1015.2
20260509221554 90 295 4.3 13.9 0.00 0.00 0.00 10 1015.3
20260509221058 90 348 4.3 13.9 0.00 0.00 0.00 10 1015.3
20260509220555 90 285 7.8 13.9 0.00 0.00 0.00 10 1015.4
20260509220057 90 301 4.3 10.4 0.00 0.00 0.00 10 1015.5
20260509215556 91 297 4.3 13.0 0.00 0.00 0.00 10 1015.6
20260509215056 91 281 3.5 13.0 0.00 0.00 0.00 11 1015.7
20260509214556 91 324 4.3 10.4 0.00 0.00 0.00 10 1015.8
20260509214059 92 240 0.0 6.1 0.00 0.00 0.00 10 1016.0
20260509213555 92 150 0.0 10.4 0.00 0.00 0.00 10 1015.9
20260509213058 92 0 0.9 13.0 0.00 0.00 0.00 11 1016.1
20260509212555 91 198 5.2 13.0 0.00 0.00 0.00 10 1016.2
20260509212056 90 310 2.6 8.7 0.00 0.00 0.00 9 1016.2
20260509211557 90 348 2.6 7.0 0.00 0.00 0.00 10 1016.3
20260509211054 91 286 0.9 7.0 0.00 0.00 0.00 10 1016.3
20260509210556 91 0 1.7 10.4 0.00 0.00 0.00 9 1016.4
20260509205556 90 302 2.6 11.3 0.00 0.00 0.00 11 1016.6
20260509205056 90 223 1.7 13.0 0.00 0.00 0.00 10 1016.6
20260509204556 89 0 4.3 13.0 0.00 0.00 0.00 11 1016.7
20260509204056 90 276 7.8 13.0 0.00 0.00 0.00 11 1016.8
20260509203554 89 318 0.0 10.4 0.00 0.00 0.00 12 1016.8
20260509203105 89 342 3.5 10.4 0.00 0.00 0.00 12 1016.9
20260509202555 89 312 4.3 11.3 0.00 0.00 0.00 10 1017.1
20260509202055 90 0 2.6 11.3 0.00 0.00 0.00 11 1017.1
20260509201556 90 297 5.2 11.3 0.00 0.00 0.00 11 1017.1
20260509201054 89 0 0.9 7.8 0.00 0.00 0.00 12 1017.2
20260509200554 88 0 0.0 12.2 0.00 0.00 0.00 11 1017.3
20260509200056 89 315 5.2 12.2 0.00 0.00 0.00 11 1017.4
20260509195557 89 316 4.3 12.2 0.00 0.00 0.00 12 1017.4
20260509195054 89 0 0.0 11.3 0.00 0.00 0.00 12 1017.4
20260509194556 88 260 4.3 11.3 0.00 0.00 0.00 12 1017.4
20260509194058 88 0 5.2 8.7 0.00 0.00 0.00 15 1017.4
20260509193552 88 35 1.7 8.7 0.00 0.00 0.00 14 1017.5
20260509193055 88 15 1.7 11.3 0.00 0.00 0.00 13 1017.6
20260509192552 87 360 5.2 11.3 0.00 0.00 0.00 17 1017.6
20260509192052 87 0 7.0 11.3 0.00 0.00 0.00 13 1017.6
20260509191552 87 10 6.1 10.4 0.00 0.00 0.00 14 1017.7